Sault Ste Marie, MI

5:20 PM EST on January 23, 2018 (GMT -0500)
Sault Ste Marie Municipal / Sanderson Field

Weather History for KANJ - June, 2013

Change the Weather History Date:

Thursday, June 20, 2013

  Actual Average Record
Temperature  
Mean Temperature 59 °F 61 °F  
Max Temperature 67 °F 73 °F 92 °F (1893)
Min Temperature 50 °F 50 °F 32 °F (1969)
Degree Days  
Heating Degree Days 6 5  
Month to date heating degree days 143 139  
Since 1 June heating degree days 143 139  
Since 1 July heating degree days 8359 8622  
Cooling Degree Days 0 1  
Month to date cooling degree days 1 13  
Year to date cooling degree days 10 18  
Since 1 June cooling degree days 1 13  
Growing Degree Days 8 (Base 50)    
Moisture  
Dew Point 51 °F    
Average Humidity 78    
Maximum Humidity 89    
Minimum Humidity 66    
Precipitation  
Precipitation 0.10 in 0.09 in 1.69 in (1949)
Month to date precipitation 0.76 1.81  
Year to date precipitation 15.02 12.25  
Sea Level Pressure  
Sea Level Pressure 30.14 in    
Wind  
Wind Speed 4 mph (East)    
Max Wind Speed 10 mph    
Max Gust Speed 13 mph    
Visibility 10 miles    
Events Rain    
T = Trace of Precipitation, MM = Missing Value Source: NWS Daily Summary

Daily Weather History Graph

Daily Weather History Graph

Search for Another Location

Airport or City:

Trip Planner

Search our weather history database for the weather conditions in past years. The results will help you decide how hot, cold, wet, or windy it might be!

Date:

Astronomy

Jun. 20, 2013 Rise Set
Actual Time 5:44 AM EDT 9:33 PM EDT
Civil Twilight 5:05 AM EDT 10:13 PM EDT
Nautical Twilight 4:11 AM EDT 11:06 PM EDT
Astronomical Twilight 2:55 AM EDT 12:23 AM EDT
Moon 6:28 PM EDT (6/20) 3:18 AM EDT (6/20)
Length of Visible Light 17h 07m
Length of Day
15h 49m
Waxing Gibbous, 89% of the Moon is Illuminated
Jun 20
Waxing Gibbous
Jun 23
Full
Jun 30
Last Quarter
Jul 8
New
Jul 15
First Quarter

Hourly Weather History & Observations

Time (EDT) Temp. Dew Point Humidity Pressure Visibility Wind Dir Wind Speed Gust Speed Precip Events Conditions
12:55 AM 53.1 °F 43.0 °F 69% 30.11 in 10.0 mi East 3.5 mph - N/A   Clear
1:55 AM 53.1 °F 44.1 °F 71% 30.11 in 10.0 mi ENE 3.5 mph - N/A   Clear
2:55 AM 52.0 °F 43.0 °F 71% 30.11 in 10.0 mi East 4.6 mph - N/A   Clear
3:55 AM 51.1 °F 44.1 °F 77% 30.09 in 10.0 mi East 4.6 mph - N/A   Clear
4:55 AM 50.0 °F 45.0 °F 83% 30.10 in 10.0 mi East 3.5 mph - N/A   Clear
5:55 AM 50.0 °F 46.0 °F 86% 30.12 in 10.0 mi ENE 3.5 mph - N/A   Mostly Cloudy
6:55 AM 52.0 °F 46.0 °F 80% 30.13 in 10.0 mi North 5.8 mph - 0.00 in Rain Light Rain
7:55 AM 53.1 °F 50.0 °F 89% 30.14 in 5.0 mi Calm Calm - 0.04 in Rain Light Rain
8:55 AM 55.0 °F 50.0 °F 83% 30.14 in 10.0 mi SSE 3.5 mph - 0.02 in   Overcast
9:55 AM 55.9 °F 51.1 °F 84% 30.14 in 8.0 mi South 4.6 mph - 0.03 in Rain Light Rain
10:55 AM 57.0 °F 51.1 °F 81% 30.14 in 10.0 mi SSE 3.5 mph - 0.00 in   Overcast
11:55 AM 57.0 °F 53.1 °F 87% 30.16 in 8.0 mi East 3.5 mph - 0.00 in Rain Light Rain
12:55 PM 57.9 °F 54.0 °F 87% 30.17 in 10.0 mi Calm Calm - 0.01 in   Overcast
1:55 PM 60.1 °F 55.9 °F 86% 30.17 in 10.0 mi East 4.6 mph - 0.00 in Rain Light Rain
2:55 PM 61.0 °F 55.0 °F 81% 30.15 in 10.0 mi NE 6.9 mph - 0.00 in   Overcast
3:55 PM 63.0 °F 55.9 °F 78% 30.15 in 10.0 mi East 4.6 mph - N/A   Overcast
4:55 PM 66.0 °F 55.9 °F 70% 30.14 in 10.0 mi East 8.1 mph - N/A   Mostly Cloudy
5:55 PM 66.0 °F 57.0 °F 73% 30.14 in 10.0 mi ESE 4.6 mph - N/A   Clear
6:55 PM 66.0 °F 57.0 °F 73% 30.13 in 10.0 mi ESE 6.9 mph - N/A   Clear
7:55 PM 66.0 °F 57.0 °F 73% 30.14 in 10.0 mi Variable 4.6 mph - N/A   Mostly Cloudy
8:55 PM 64.0 °F 54.0 °F 70% 30.15 in 10.0 mi SE 4.6 mph - N/A   Partly Cloudy
9:55 PM 62.1 °F 52.0 °F 70% 30.16 in 10.0 mi ESE 3.5 mph - N/A   Partly Cloudy
10:55 PM 61.0 °F 53.1 °F 75% 30.17 in 10.0 mi Calm Calm - N/A   Scattered Clouds
11:55 PM 60.1 °F 53.1 °F 78% 30.17 in 10.0 mi ENE 3.5 mph - N/A   Scattered Clouds